Location: Newark
(27.9675°N, 86.8869°E)
Time: 19:19:21
(UTC+00:00)

Vanguard 3 - Pass Details

Date: 29 October 2019
Orbit: 508 x 3263 km, 33.3° (Epoch: 12 November)

Event Time Altitude Azimuth Distance (km) Brightness Sun altitude
Rises 21:20:52 0° 270° (W) 2,630 - -40.4°
Reaches altitude 10° 21:23:28 10° 248° (WSW) 1,851 - -39.8°
Maximum altitude 21:26:11 17° 206° (SSW) 1,619 - -39.3°
Drops below altitude 10° 21:29:31 10° 165° (SSE) 2,341 - -38.5°
Exits shadow 21:30:54 - 157° (SSE) 2,797 10.1 -38.2°
Sets 21:33:27 0° 147° (SSE) 3,714 10.9 -37.7°
